Regional Weather Roundup
Issued by NWS

Home | Current Version | Previous Version | Graphics & Text | Print | Product List | Glossary On
Versions: 1 2 3 4 5 6 7 8 9 10 11 12 13 14 15 16 17 18 19 20 21 22 23 24 25 26 27 28 29 30 31 32 33 34 35 36 37 38 39 40 41 42 43 44 45 46 47 48 49 50
000
ASUS43 KLOT 231758
RWRIL

ILLINOIS REGIONAL WEATHER ROUNDUP
NATIONAL WEATHER SERVICE CHICAGO/ROMEOVILLE IL
100 PM CDT TUE SEP 23 2014

NOTE: "FAIR" INDICATES FEW OR NO CLOUDS BELOW 12,000 FEET WITH NO
SIGNIFICANT WEATHER AND/OR OBSTRUCTIONS TO VISIBILITY.

* THESE STATIONS ARE NOT UNDER NWS QUALITY CONTROL. THEY ALSO MAY NOT
  REPORT WEATHER SUCH AS PRECIPITATION OR FOG.

ILZ001-002-007-009-015-016-024-231900-
NORTHWEST ILLINOIS

CITY           SKY/WX    TMP DP  RH WIND       PRES   REMARKS
MOLINE         SUNNY     72  46  39 SE9       30.30F
6HR MIN TEMP:  42; 6HR MAX TEMP:  72;

$$

ILZ003-004-008-010-011-017-018-231900-
NORTH CENTRAL ILLINOIS

CITY           SKY/WX    TMP DP  RH WIND       PRES   REMARKS
ROCKFORD       NOT AVBL
$$

ILZ005-006-012>014-019>023-231900-
NORTHEAST ILLINOIS

CITY           SKY/WX    TMP DP  RH WIND       PRES   REMARKS
CHICAGO-OHARE  MOSUNNY   67  47  48 SW5       30.34S
6HR MIN TEMP:  52; 6HR MAX TEMP:  67;

CHICAGO-MIDWAY MOSUNNY   71  48  43 SE5       30.34F
6HR MIN TEMP:  50; 6HR MAX TEMP:  72;

AURORA         SUNNY     70  46  42 VRB3      30.35S
6HR MIN TEMP:  42; 6HR MAX TEMP:  71;

WAUKEGAN       SUNNY     70  48  45 SW5       30.32F
6HR MIN TEMP:  48; 6HR MAX TEMP:  70;

DUPAGE AIRPORT SUNNY     72  47  40 CALM      30.34S
6HR MIN TEMP:  45; 6HR MAX TEMP:  72;

WHEELING       SUNNY     72  46  39 W5        30.35F
6HR MIN TEMP:  48; 6HR MAX TEMP:  73;

NORTHERLY ISL    N/A     69  50  50 E8          N/A
$$

LMZ740>746-231900-
SOUTHERN LAKE MICHIGAN

STATION/POSITION SKY/WX   TEMP    WIND        PRES    VSBY  WAVE
                          AIR SEA DIR/SP/G                  HT/PER
                          (F)     (DEG/KT/KT) (MB)    (MI)  (FT/S)
SOUTHERN BUOY              61 61  230/  8/ 10 1027.6S         2/ 4
WAUKEGAN HARBOR            67     250/  6/  8   N/A
BURNHAM HARBOR             70     300/  2/  8   N/A
CALUMET HARBOR             68     170/  5/  7 1026.2
MICHIGAN CITY 6N           63 64  290/  6/  6   N/A           1
ST. JOSEPH                 62 65  240/  8/ 10   N/A           1/ 3
$$

ILZ025>027-034>036-040-047-049-050-058-095>099-231900-
WEST-CENTRAL ILLINOIS

CITY           SKY/WX    TMP DP  RH WIND       PRES   REMARKS
$$

ILZ028>032-037-038-041>044-048-051>054-059>061-231900-
CENTRAL ILLINOIS

CITY           SKY/WX    TMP DP  RH WIND       PRES   REMARKS
PEORIA         NOT AVBL
SPRINGFIELD    SUNNY     72  48  42 VRB5      30.33F
6HR MIN TEMP:  45; 6HR MAX TEMP:  73;

TAYLORVILLE    NOT AVBL
$$

ILZ033-039-045-046-055>057-062-063-231900-
EAST-CENTRAL ILLINOIS

CITY           SKY/WX    TMP DP  RH WIND       PRES   REMARKS
CHAMPAIGN      SUNNY     71  45  39 SE7       30.35F
$$

ILZ079-100>102-231900-
SOUTHWEST ILLINOIS

CITY           SKY/WX    TMP DP  RH WIND       PRES   REMARKS
$$

ILZ064>066-069>071-074>076-080>082-084>086-088>090-092>094-231900-
SOUTH-CENTRAL ILLINOIS

CITY           SKY/WX    TMP DP  RH WIND       PRES   REMARKS
CARBONDALE     SUNNY     71  44  37 VRB5      30.31F
6HR MIN TEMP:  42; 6HR MAX TEMP:  72;

MARION         MOSUNNY   72  46  40 NE9       30.32F
$$

ILZ067-068-072-073-078-083-087-091-231900-
SOUTHEAST ILLINOIS

CITY           SKY/WX    TMP DP  RH WIND       PRES   REMARKS
$$

ABBREVIATIONS USED IN REMARKS
   TC - TEMPERATURE IN CELSIUS
  WCI - WIND CHILL INDEX
   HX - HEAT INDEX
  VSB - VISIBILITY
$$




USA.gov is the U.S. government's official web portal to all federal, state and local government web resources and services.